TimeCDT,TemperatureF,Dew PointF,Humidity,Sea Level PressureIn,VisibilityMPH,Wind Direction,Wind SpeedMPH,Gust SpeedMPH,PrecipitationIn,Events,Conditions,WindDirDegrees,DateUTC
12:35 AM,46.4,44.6,93,30.20,10.0,Calm,Calm,-,N/A,,Clear,0,2013-05-13 05:35:00
12:55 AM,46.4,42.8,87,30.19,10.0,Calm,Calm,-,N/A,,Clear,0,2013-05-13 05:55:00
1:15 AM,44.6,42.8,93,30.19,10.0,Calm,Calm,-,N/A,,Clear,0,2013-05-13 06:15:00
1:35 AM,44.6,42.8,93,30.19,10.0,Calm,Calm,-,N/A,,Clear,0,2013-05-13 06:35:00
1:55 AM,42.8,42.8,100,30.19,10.0,Calm,Calm,-,N/A,,Clear,0,2013-05-13 06:55:00
2:15 AM,42.8,42.8,100,30.19,10.0,Calm,Calm,-,N/A,,Clear,0,2013-05-13 07:15:00
2:35 AM,42.8,41.0,93,30.19,10.0,Calm,Calm,-,N/A,,Clear,0,2013-05-13 07:35:00
2:55 AM,41.0,41.0,100,30.19,10.0,Calm,Calm,-,N/A,,Clear,0,2013-05-13 07:55:00
3:15 AM,41.0,41.0,100,30.20,10.0,Calm,Calm,-,N/A,,Clear,0,2013-05-13 08:15:00
3:35 AM,41.0,41.0,100,30.19,10.0,Calm,Calm,-,N/A,,Clear,0,2013-05-13 08:35:00
3:55 AM,41.0,41.0,100,30.20,10.0,Calm,Calm,-,N/A,,Clear,0,2013-05-13 08:55:00
4:15 AM,41.0,39.2,93,30.20,10.0,Calm,Calm,-,N/A,,Clear,0,2013-05-13 09:15:00
4:35 AM,41.0,39.2,93,30.21,10.0,Calm,Calm,-,N/A,,Clear,0,2013-05-13 09:35:00
4:55 AM,39.2,39.2,100,30.22,10.0,Calm,Calm,-,N/A,,Clear,0,2013-05-13 09:55:00
5:15 AM,41.0,39.2,93,30.22,10.0,Calm,Calm,-,N/A,,Clear,0,2013-05-13 10:15:00
5:35 AM,39.2,39.2,100,30.23,10.0,Calm,Calm,-,N/A,,Clear,0,2013-05-13 10:35:00
5:55 AM,39.2,37.4,93,30.24,10.0,Calm,Calm,-,N/A,,Clear,0,2013-05-13 10:55:00
6:15 AM,39.2,39.2,100,30.25,10.0,Calm,Calm,-,N/A,,Clear,0,2013-05-13 11:15:00
6:35 AM,41.0,41.0,100,30.25,10.0,Calm,Calm,-,N/A,,Clear,0,2013-05-13 11:35:00
6:55 AM,42.8,41.0,93,30.26,10.0,Calm,Calm,-,N/A,,Clear,0,2013-05-13 11:55:00
7:15 AM,44.6,42.8,93,30.27,10.0,Calm,Calm,-,N/A,,Clear,0,2013-05-13 12:15:00
7:35 AM,48.2,44.6,87,30.27,10.0,Calm,Calm,-,N/A,,Clear,0,2013-05-13 12:35:00
7:55 AM,51.8,46.4,82,30.27,10.0,Calm,Calm,-,N/A,,Clear,0,2013-05-13 12:55:00
8:15 AM,53.6,46.4,77,30.28,10.0,Calm,Calm,-,N/A,,Clear,0,2013-05-13 13:15:00
8:35 AM,55.4,44.6,67,30.29,10.0,Calm,Calm,-,N/A,,Clear,0,2013-05-13 13:35:00
8:55 AM,59.0,42.8,55,30.30,10.0,SE,3.5,-,N/A,,Clear,140,2013-05-13 13:55:00
9:15 AM,60.8,44.6,55,30.30,10.0,Calm,Calm,-,N/A,,Clear,0,2013-05-13 14:15:00
9:35 AM,60.8,42.8,52,30.30,10.0,East,4.6,-,N/A,,Clear,90,2013-05-13 14:35:00
9:55 AM,62.6,41.0,45,30.30,10.0,ESE,4.6,-,N/A,,Clear,110,2013-05-13 14:55:00
10:15 AM,62.6,41.0,45,30.30,10.0,East,3.5,-,N/A,,Clear,80,2013-05-13 15:15:00
10:35 AM,64.4,41.0,42,30.30,10.0,East,4.6,-,N/A,,Clear,100,2013-05-13 15:35:00
10:55 AM,64.4,37.4,37,30.30,10.0,SSE,3.5,-,N/A,,Clear,160,2013-05-13 15:55:00
11:15 AM,66.2,37.4,35,30.31,10.0,Calm,Calm,-,N/A,,Clear,0,2013-05-13 16:15:00
11:35 AM,66.2,37.4,35,30.31,10.0,West,4.6,-,N/A,,Clear,280,2013-05-13 16:35:00
11:55 AM,68.0,39.2,35,30.30,10.0,Calm,Calm,-,N/A,,Clear,0,2013-05-13 16:55:00
12:15 PM,68.0,35.6,30,30.30,10.0,Calm,Calm,-,N/A,,Clear,0,2013-05-13 17:15:00
12:35 PM,68.0,37.4,33,30.29,10.0,Calm,Calm,-,N/A,,Clear,0,2013-05-13 17:35:00
12:55 PM,69.8,41.0,35,30.28,10.0,SE,3.5,-,N/A,,Clear,140,2013-05-13 17:55:00
1:15 PM,69.8,37.4,31,30.28,10.0,Calm,Calm,-,N/A,,Clear,0,2013-05-13 18:15:00
1:35 PM,69.8,39.2,33,30.27,10.0,Calm,Calm,-,N/A,,Clear,0,2013-05-13 18:35:00
1:55 PM,71.6,41.0,33,30.26,10.0,Calm,Calm,-,N/A,,Clear,0,2013-05-13 18:55:00
2:15 PM,71.6,41.0,33,30.25,10.0,Calm,Calm,-,N/A,,Clear,0,2013-05-13 19:15:00
2:35 PM,71.6,41.0,33,30.25,10.0,Calm,Calm,-,N/A,,Clear,0,2013-05-13 19:35:00
3:35 PM,73.4,41.0,31,30.22,10.0,NNE,3.5,-,N/A,,Clear,30,2013-05-13 20:35:00
3:55 PM,73.4,42.8,33,30.21,10.0,SW,4.6,-,N/A,,Clear,230,2013-05-13 20:55:00
4:15 PM,73.4,41.0,31,30.21,10.0,Calm,Calm,-,N/A,,Clear,0,2013-05-13 21:15:00
4:35 PM,73.4,42.8,33,30.20,10.0,WSW,5.8,-,N/A,,Clear,250,2013-05-13 21:35:00
4:55 PM,73.4,44.6,36,30.20,10.0,SSW,3.5,-,N/A,,Clear,210,2013-05-13 21:55:00
5:15 PM,73.4,44.6,36,30.19,10.0,Calm,Calm,-,N/A,,Clear,0,2013-05-13 22:15:00
5:35 PM,73.4,42.8,33,30.19,10.0,Calm,Calm,-,N/A,,Clear,0,2013-05-13 22:35:00
5:55 PM,73.4,44.6,36,30.18,10.0,Calm,Calm,-,N/A,,Clear,0,2013-05-13 22:55:00
6:35 PM,73.4,46.4,38,30.17,10.0,Calm,Calm,-,N/A,,Clear,0,2013-05-13 23:35:00
7:15 PM,68.0,55.4,64,30.17,10.0,Calm,Calm,-,N/A,,Clear,0,2013-05-14 00:15:00
7:35 PM,62.6,55.4,77,30.17,10.0,Calm,Calm,-,N/A,,Clear,0,2013-05-14 00:35:00
7:55 PM,62.6,55.4,77,30.17,10.0,Calm,Calm,-,N/A,,Clear,0,2013-05-14 00:55:00
8:15 PM,59.0,55.4,88,30.17,10.0,Calm,Calm,-,N/A,,Clear,0,2013-05-14 01:15:00
8:35 PM,59.0,55.4,88,30.18,10.0,Calm,Calm,-,N/A,,Clear,0,2013-05-14 01:35:00
8:55 PM,59.0,53.6,82,30.19,10.0,Calm,Calm,-,N/A,,Clear,0,2013-05-14 01:55:00
9:15 PM,55.4,53.6,94,30.19,10.0,Calm,Calm,-,N/A,,Clear,0,2013-05-14 02:15:00
9:35 PM,55.4,53.6,94,30.20,10.0,Calm,Calm,-,N/A,,Clear,0,2013-05-14 02:35:00
9:55 PM,55.4,53.6,94,30.21,10.0,Calm,Calm,-,N/A,,Clear,0,2013-05-14 02:55:00
10:15 PM,55.4,53.6,94,30.21,10.0,Calm,Calm,-,N/A,,Clear,0,2013-05-14 03:15:00
10:35 PM,53.6,51.8,94,30.21,10.0,Calm,Calm,-,N/A,,Clear,0,2013-05-14 03:35:00
10:55 PM,53.6,51.8,94,30.21,10.0,Calm,Calm,-,N/A,,Clear,0,2013-05-14 03:55:00
11:15 PM,53.6,53.6,100,30.21,10.0,Calm,Calm,-,N/A,,Clear,0,2013-05-14 04:15:00
11:35 PM,53.6,51.8,94,30.21,10.0,Calm,Calm,-,N/A,,Clear,0,2013-05-14 04:35:00
11:55 PM,51.8,51.8,100,30.21,10.0,Calm,Calm,-,N/A,,Clear,0,2013-05-14 04:55:00